Helicity
167 160 150 177 143 151 149 159 165 143 134 136 117 105 102 101 92 80 77 76 73 72 41 64 60 69 69 73 61 83 62 15 -11 76 98 111 112 122 112 136 148 105 84 93 76 47 26
189 163 148 157 166 172 158 157 155 145 127 138 128 101 92 92 84 70 71 78 68 73 54 59 74 79 89 83 27 78 87 78 118 128 129 104 88 129 142 133 142 105 67 62 69 77 38
135 140 129 118 134 133 130 134 139 143 134 128 124 94 80 76 70 62 67 69 70 66 42 51 77 85 112 118 79 43 33 44 112 117 88 99 83 147 178 130 121 86 61 52 64 61 97
111 109 100 100 118 119 122 122 120 127 110 102 99 87 77 70 61 44 59 74 55 39 44 84 90 99 121 45 63 16 76 32 -0 4 14 19 79 113 126 111 126 102 87 104 -3 45 57
98 102 114 124 139 144 132 133 123 113 110 96 91 77 69 58 51 48 46 68 43 69 83 124 112 127 68 43 36 61 16 14 55 47 42 24 90 128 143 98 117 102 85 81 77 20 119
93 100 115 113 119 119 124 115 106 96 92 96 90 81 85 70 62 44 66 104 137 149 136 131 165 136 62 62 42 22 46 45 57 81 84 103 214 225 195 191 110 52 64 70 92 101 106
85 79 83 98 109 110 108 103 108 85 86 85 86 71 77 83 73 84 156 95 87 74 138 128 106 168 138 92 88 63 76 129 142 147 79 139 183 218 100 157 140 129 87 51 99 89 118
86 82 73 85 96 95 95 93 103 93 88 77 73 74 75 84 91 53 129 101 74 91 82 61 66 155 67 152 266 141 185 188 162 131 156 185 141 102 144 146 99 81 77 109 115 117 114
88 89 78 77 84 93 94 94 94 90 87 83 84 88 92 90 68 105 94 38 83 140 101 73 139 208 213 150 254 249 340 294 240 161 158 160 137 73 85 72 53 96 115 129 125 150 88
90 89 86 67 70 75 89 88 100 95 93 81 82 91 102 99 118 156 124 -24 -1 91 141 74 71 81 138 184 176 139 212 320 278 160 184 140 130 64 50 109 101 112 187 163 148 148 164
96 98 99 89 72 65 71 75 76 77 75 68 71 81 82 70 122 125 44 -6 50 90 237 127 138 104 114 81 147 104 34 260 91 185 208 159 196 44 34 31 185 191 143 123 111 125 142
122 127 120 106 85 73 78 74 77 72 72 72 72 95 111 119 157 91 85 96 104 325 313 269 164 166 162 55 165 204 153 125 113 152 124 132 149 110 127 204 193 151 154 89 87 100 168
131 135 110 96 96 89 77 78 79 74 74 83 98 120 117 168 179 126 143 160 354 431 351 252 235 210 126 128 135 191 163 97 188 208 173 162 157 199 221 210 160 225 202 164 155 145 177
127 137 116 96 88 90 89 88 85 83 78 90 117 179 195 196 153 209 226 234 441 351 335 263 225 186 178 216 139 83 155 152 149 207 187 168 177 131 128 157 160 176 188 209 167 206 129
54 79 109 109 94 88 87 91 84 93 82 99 135 169 218 220 152 235 274 332 387 359 261 216 117 190 227 213 197 138 112 98 154 227 198 142 147 109 96 129 199 193 187 131 166 98 135
77 56 83 94 109 99 83 106 99 91 80 104 155 177 189 199 207 250 252 357 298 207 253 310 276 198 240 174 242 178 210 211 127 149 201 139 144 181 173 173 175 146 85 196 189 145 149
76 51 71 97 105 99 97 108 93 79 74 110 195 221 200 199 224 212 367 363 218 190 205 152 175 225 221 200 184 194 203 238 196 204 122 259 270 204 251 219 210 188 168 155 117 138 150
78 79 74 67 82 54 67 75 72 51 69 143 183 233 169 213 270 328 410 303 180 218 158 132 192 180 174 130 124 192 166 151 216 193 145 237 265 240 320 210 136 145 118 182 179 107 140
72 54 50 48 56 69 73 82 98 74 76 185 172 215 133 188 298 263 334 318 344 305 170 213 173 176 137 103 190 195 205 272 186 139 127 266 212 202 310 242 218 165 103 129 149 186 151
65 52 40 34 49 73 77 88 96 92 71 164 135 253 207 217 237 215 260 194 201 129 198 180 166 140 151 183 205 133 156 153 172 205 204 192 204 206 260 186 231 225 159 175 232 205 157
41 37 39 41 53 64 66 74 93 97 81 170 142 163 134 227 204 133 165 153 145 216 164 256 126 124 265 235 186 245 203 169 193 171 227 217 170 173 130 192 218 184 184 137 164 128 164
27 24 31 37 50 62 62 59 70 83 98 175 164 127 228 309 200 126 188 85 63 82 87 92 157 218 318 243 197 104 164 182 201 208 239 247 174 192 202 209 263 168 160 232 170 202 285
25 29 39 47 54 53 42 50 58 62 98 189 150 87 112 136 153 114 130 99 123 65 125 96 51 70 97 128 143 149 137 141 162 178 184 174 178 148 98 82 163 203 208 184 201 290 250
38 34 35 35 43 43 37 34 48 48 80 184 129 197 119 106 103 99 97 73 77 43 84 65 74 89 109 195 279 296 250 169 153 135 143 147 180 191 146 184 197 197 192 185 234 252 210
53 45 34 48 47 37 29 30 40 32 59 160 129 92 93 116 109 3 -110 70 65 70 40 21 80 106 222 322 251 225 244 247 194 153 155 174 195 174 186 166 153 142 129 133 145 146 197
17 14 23 30 34 32 29 32 28 17 45 149 125 143 164 120 54 45 -1 11 100 87 84 36 91 242 262 216 204 215 242 217 197 172 120 71 93 133 149 201 133 119 111 78 99 101 119
93 56 33 26 13 13 20 19 17 12 30 98 72 84 164 91 64 29 23 4 67 133 70 55 102 223 283 209 211 156 159 136 140 139 196 180 131 88 112 125 112 125 80 79 122 42 92
36 13 7 15 7 19 43 35 34 32 28 64 163 143 89 112 89 47 41 57 103 144 146 90 277 252 277 221 164 150 163 164 141 119 124 176 179 138 119 113 62 125 109 67 63 113 131
47 4 18 12 18 10 28 13 4 12 41 41 141 114 88 68 45 13 120 210 130 147 199 149 154 136 67 149 149 178 124 155 125 128 145 125 121 152 134 90 79 139 99 84 85 108 93
Wind_Speed
54 52 52 53 55 56 56 56 56 58 58 58 57 57 58 58 57 56 57 55 55 59 49 44 47 52 51 50 48 42 50 54 52 46 48 46 53 54 59 55 62 71 65 66 75 81 83
51 52 54 54 55 57 56 56 55 55 57 57 56 53 55 56 55 54 54 56 55 56 49 43 45 49 51 63 46 46 49 50 40 42 46 45 50 53 67 61 63 67 79 78 74 78 80
53 54 55 53 52 53 54 54 54 53 53 54 52 52 54 54 54 54 56 58 56 53 47 43 45 51 56 61 48 58 71 62 48 40 45 42 42 54 61 70 59 70 87 85 76 70 71
57 55 52 51 50 50 52 50 50 51 51 50 51 54 56 56 55 55 57 58 50 52 42 40 43 52 67 61 62 67 56 58 47 38 38 41 41 51 57 57 69 79 78 80 53 61 63
55 52 48 47 50 51 51 49 52 51 51 49 54 55 54 57 57 56 55 51 50 41 36 35 49 53 74 53 51 46 29 37 39 41 39 37 38 52 54 65 75 65 80 82 81 55 66
54 52 47 46 48 49 47 49 50 51 48 52 52 55 56 59 55 56 45 39 35 35 39 44 53 63 54 52 46 44 28 26 35 37 41 37 41 51 51 54 72 71 75 80 82 77 71
53 50 46 46 49 51 51 51 52 50 53 57 54 57 58 58 55 36 26 35 46 55 50 51 50 59 59 57 45 44 31 28 33 39 46 39 51 56 51 49 59 70 79 92 89 74 90
57 53 51 50 51 51 52 53 53 53 57 59 55 56 58 58 54 23 30 46 46 52 77 54 60 62 58 58 62 45 26 32 36 47 42 51 62 55 51 52 61 70 82 89 100 82 82
59 59 56 55 53 54 54 55 56 56 58 59 59 59 56 55 44 30 38 42 47 56 72 74 59 65 62 48 60 47 35 38 45 45 45 55 50 42 47 54 63 68 76 84 86 82 73
62 59 58 57 56 56 55 57 57 59 60 59 58 58 56 49 29 37 44 40 43 46 73 75 62 63 41 37 57 35 37 38 47 54 52 60 55 57 59 62 62 78 61 69 74 82 93
69 66 63 62 63 63 63 60 61 61 62 60 60 59 53 33 42 39 40 29 28 37 81 53 45 29 27 26 40 35 15 34 49 51 42 54 52 48 56 59 50 64 53 62 66 75 82
64 61 60 61 63 65 64 63 63 63 63 63 63 62 55 47 45 38 24 16 23 50 79 55 40 40 37 38 43 31 27 26 37 48 56 65 57 57 58 47 46 42 57 59 59 61 77
65 65 64 64 63 62 63 62 62 61 60 62 63 67 55 37 50 24 13 19 51 72 53 60 54 45 45 48 47 37 36 38 43 50 57 60 61 51 43 50 44 48 58 72 67 61 65
69 69 70 70 68 67 66 64 62 59 57 58 59 56 43 40 30 19 21 41 73 71 67 45 44 46 56 46 51 45 45 48 47 47 54 57 65 41 38 44 50 44 41 50 64 62 60
68 67 70 71 72 71 68 64 62 55 52 51 51 48 45 38 27 26 36 64 73 67 58 65 73 69 63 53 52 50 52 51 45 39 49 48 53 44 38 36 29 38 44 38 50 53 56
71 71 69 67 67 67 62 59 57 51 47 44 48 49 52 38 28 35 56 70 68 61 58 56 65 54 67 60 50 48 48 49 52 43 37 47 60 48 43 32 30 33 23 36 36 45 49
67 66 66 66 66 63 58 56 52 47 42 38 48 57 45 33 29 52 68 69 68 62 55 65 65 61 55 55 49 52 50 49 43 43 36 45 50 56 36 38 35 30 36 35 33 40 48
67 65 65 66 65 61 58 55 52 46 39 38 49 64 42 30 55 59 69 69 65 63 62 68 59 62 63 55 57 54 51 47 39 41 46 45 46 58 49 37 24 26 28 28 43 46 40
63 63 64 64 63 62 59 54 51 48 42 42 57 54 40 44 69 75 67 65 65 63 64 64 67 59 54 55 59 56 55 42 38 42 43 35 48 55 42 46 36 29 33 24 32 40 42
58 60 62 63 60 59 58 58 54 47 41 45 49 60 52 51 59 65 67 66 69 62 70 63 68 61 56 61 55 49 48 44 38 38 34 33 44 46 48 41 34 39 40 37 28 41 39
58 57 59 60 59 59 58 56 54 50 44 45 51 57 54 60 68 63 58 65 73 69 63 63 64 62 59 59 53 54 45 42 41 34 38 38 52 47 55 49 41 38 42 44 36 32 41
54 58 57 54 52 50 50 50 52 51 46 52 54 51 47 52 54 60 59 62 69 63 64 61 64 68 49 57 52 53 47 48 48 43 45 42 53 51 59 58 51 50 41 38 36 35 34
55 55 56 55 52 52 52 54 53 51 46 53 52 55 49 53 54 50 62 67 68 58 62 65 58 59 60 48 45 41 40 40 43 41 41 40 45 52 62 51 53 64 40 37 34 37 27
58 60 61 60 59 59 58 57 60 58 47 48 42 44 48 59 46 50 52 49 53 62 55 69 66 62 56 28 27 36 39 34 37 37 34 38 38 45 56 41 53 43 35 27 26 35 34
68 72 71 69 70 67 64 59 60 62 54 53 48 49 48 51 42 39 52 65 76 80 85 76 64 54 29 35 43 42 44 44 43 36 32 28 37 44 45 45 39 35 26 25 31 34 33
82 87 89 87 84 75 66 63 60 55 42 44 56 52 47 47 74 68 65 62 77 57 69 67 56 51 34 41 40 39 41 37 42 39 32 31 35 38 42 43 47 36 24 25 29 40 26
79 83 89 90 89 86 78 68 57 51 41 48 64 55 43 59 56 52 58 57 32 31 56 58 53 49 42 32 36 41 49 37 42 41 38 38 38 39 46 50 41 28 23 27 30 37 17
50 59 64 67 71 79 78 79 78 79 84 73 56 49 53 51 46 49 52 45 38 33 56 49 39 49 43 42 43 41 44 46 43 42 39 31 34 41 39 40 48 31 29 26 23 20 20
49 51 51 52 59 67 70 86 83 84 84 73 56 49 44 50 46 43 53 51 44 42 44 46 42 31 28 35 39 36 39 42 40 41 29 36 33 29 35 36 30 29 26 17 20 18 21
Wind_Direction
288 289 289 290 291 293 294 295 296 298 300 301 301 301 303 305 307 309 310 311 310 308 312 317 317 315 318 314 310 311 307 311 318 321 315 312 304 305 299 305 305 298 304 305 303 301 299
287 288 289 290 291 291 293 294 296 296 298 300 301 301 303 305 307 309 310 310 307 312 311 310 313 311 311 305 312 315 315 315 316 315 312 313 306 304 299 301 302 303 301 303 306 305 303
285 287 289 290 291 291 292 293 294 296 297 299 301 302 303 305 306 306 307 305 306 312 308 305 309 307 304 302 310 306 299 303 311 309 307 315 312 303 305 302 306 305 301 302 304 306 303
283 286 288 289 290 290 291 293 294 295 296 298 299 299 300 301 304 304 303 306 310 308 307 306 312 308 300 307 307 301 301 299 301 301 304 307 313 309 305 306 305 302 303 303 314 317 312
283 285 287 289 289 289 290 292 294 294 295 297 299 301 303 299 300 303 305 309 307 311 309 310 309 307 304 313 313 316 307 308 305 303 301 304 304 304 303 302 302 303 300 301 306 314 315
281 282 284 287 287 288 289 290 293 293 295 298 301 301 301 298 303 302 309 314 320 317 309 307 302 304 305 308 315 314 320 312 313 309 308 301 302 297 303 299 299 303 302 302 303 310 312
277 279 281 283 285 286 287 288 290 290 293 294 299 299 299 299 301 309 314 314 306 301 293 291 296 296 304 313 311 303 311 314 310 304 298 301 290 290 294 294 299 302 300 299 302 308 306
273 275 278 279 281 284 284 285 288 289 290 292 297 299 298 299 301 295 302 300 301 306 295 287 286 285 291 304 300 296 305 302 297 295 298 298 288 293 295 296 297 299 299 300 301 308 310
272 273 274 275 278 281 283 284 285 287 289 292 294 295 297 299 299 289 292 297 306 313 296 295 290 290 291 285 284 282 289 291 295 291 293 290 304 308 296 296 296 298 299 303 303 310 312
271 271 273 273 275 277 280 282 284 286 288 291 293 295 295 300 286 291 293 297 303 314 297 296 297 297 295 296 295 266 266 281 293 291 294 295 291 292 294 296 300 299 309 310 310 311 309
268 269 269 270 273 275 277 279 282 284 287 290 292 292 292 280 294 286 301 295 308 313 290 303 301 317 310 301 316 317 247 273 278 289 292 298 307 300 294 296 303 303 312 312 313 310 312
265 266 269 271 274 275 275 276 280 282 285 288 290 290 289 281 282 293 301 304 306 288 283 298 298 293 296 295 307 314 307 297 294 286 287 291 298 299 300 302 303 308 310 313 315 314 309
264 266 268 271 273 274 275 276 278 281 284 287 290 288 282 274 276 272 276 278 280 276 295 291 288 289 286 288 292 295 290 282 295 295 291 297 294 296 297 298 303 304 306 306 308 310 310
265 266 268 270 271 273 273 275 276 279 282 286 292 294 282 272 274 237 254 264 272 279 274 298 301 296 283 289 285 284 290 286 286 293 299 299 302 300 300 291 297 302 302 302 305 309 316
264 266 268 270 271 271 270 271 273 276 280 285 291 288 281 272 252 235 248 257 267 277 287 281 282 288 286 285 286 281 278 280 284 280 288 300 301 306 307 309 300 307 300 306 303 308 313
263 265 267 269 271 271 268 267 269 271 275 281 285 281 276 272 245 248 251 260 266 271 283 293 284 286 281 283 281 282 281 296 282 282 282 293 294 300 308 312 308 301 317 307 307 311 313
263 263 266 267 269 269 267 266 266 266 270 275 279 277 281 269 246 254 256 262 266 270 279 277 280 284 286 288 286 280 282 290 295 297 284 285 289 299 299 289 294 294 293 303 306 307 312
262 263 264 266 266 267 264 263 263 260 261 267 274 271 279 259 254 260 256 262 268 273 272 272 283 278 279 281 284 283 281 283 296 295 291 293 295 289 282 293 288 284 289 278 293 302 309
259 262 264 265 264 264 262 262 262 258 250 263 268 270 278 265 256 257 264 262 268 270 267 275 268 274 275 278 280 281 282 288 286 291 293 291 293 293 286 290 290 277 285 285 287 298 300
261 263 265 264 263 263 262 259 259 258 247 255 266 267 267 264 265 262 260 265 263 270 271 273 272 268 272 272 276 281 280 286 288 288 292 292 289 287 279 282 286 283 283 284 281 287 298
262 264 264 264 262 261 261 260 256 253 252 253 262 265 265 263 260 260 263 269 261 267 267 272 272 267 259 267 266 270 279 282 287 286 291 286 284 280 282 283 291 291 295 286 274 275 290
264 264 264 263 260 261 262 260 255 251 250 249 255 259 264 267 262 258 260 266 263 265 262 268 265 270 259 257 265 269 268 275 281 283 280 283 283 284 278 277 283 285 292 297 290 296 301
266 265 264 261 259 258 259 257 256 251 242 253 255 260 271 266 262 262 261 263 269 268 268 260 258 260 260 263 272 281 283 279 280 281 278 279 280 280 277 274 281 279 288 285 293 299 296
266 264 263 259 257 257 257 256 253 249 239 248 254 254 257 262 261 262 277 264 265 256 268 259 255 258 265 264 279 287 287 278 282 279 277 279 282 281 277 274 273 288 298 296 292 298 303
263 258 257 255 253 253 253 254 252 248 245 243 248 251 256 254 263 272 276 257 248 249 249 248 253 260 241 260 267 272 275 275 274 275 276 279 281 280 273 270 285 289 303 301 295 296 303
250 243 240 242 244 247 249 248 248 244 232 236 243 247 253 255 244 246 247 252 226 260 241 246 253 253 245 256 257 260 262 269 267 273 275 279 277 278 270 272 276 295 306 310 311 300 304
231 228 221 222 229 233 237 239 243 233 226 234 227 236 241 240 249 254 248 253 276 268 248 247 247 252 234 250 248 260 262 270 266 267 266 267 271 271 268 269 286 297 303 308 304 310 330
236 227 225 225 227 223 224 223 219 215 213 215 224 235 238 240 258 266 272 269 272 258 240 238 236 240 241 247 256 267 269 266 271 272 268 265 265 266 271 278 276 285 292 306 325 343 347
240 233 230 236 230 219 212 194 194 200 202 212 223 232 244 243 253 277 262 252 256 248 236 228 237 224 256 258 268 278 271 266 263 260 275 267 273 277 275 274 294 293 297 326 338 360 358